EW7349 Weather Reports


Display with metric or nautical units.
time (UTC)temp
F
wind
direction
speed
MPH
gust
MPH
rain 1hr
in
rain 24hr
in
rain mn
in
humidity
%
barometer
mb
20260504034328 48 117 0.0 1.0 0.00 0.00 0.00 66 1015.5
20260504034054 48 117 0.0 0.0 0.00 0.00 0.00 66 1015.4
20260504033330 48 117 0.0 0.0 0.00 0.00 0.00 65 1015.4
20260504033043 48 117 0.0 0.0 0.00 0.00 0.00 65 1015.3
20260504032927 48 117 0.0 0.0 0.00 0.00 0.00 65 1015.4
20260504031829 48 117 0.0 0.0 0.00 0.00 0.00 65 1015.3
20260504031325 49 117 0.0 0.0 0.00 0.00 0.00 64 1015.4
20260504030824 49 117 0.0 0.0 0.00 0.00 0.00 63 1015.4
20260504030325 49 117 0.0 0.0 0.00 0.00 0.00 63 1015.3
20260504025824 49 117 0.0 0.0 0.00 0.00 0.00 63 1015.3
20260504025325 49 117 0.0 0.0 0.00 0.00 0.00 62 1015.3
20260504024825 49 117 0.0 0.0 0.00 0.00 0.00 61 1015.3
20260504024817 49 117 0.0 0.0 0.00 0.00 0.00 60 1015.3
20260504023824 49 117 0.0 0.0 0.00 0.00 0.00 60 1015.2
20260504023325 49 117 0.0 0.0 0.00 0.00 0.00 60 1015.3
20260504023049 50 117 0.0 0.0 0.00 0.00 0.00 60 1015.2
20260504022321 50 117 0.0 1.0 0.00 0.00 0.00 60 1015.2
20260504021821 50 117 0.0 1.0 0.00 0.00 0.00 60 1015.2
20260504021319 50 117 0.0 0.0 0.00 0.00 0.00 58 1015.2
20260504020821 50 117 0.0 0.0 0.00 0.00 0.00 58 1015.2
20260504020319 51 117 0.0 0.0 0.00 0.00 0.00 57 1015.2
20260504015820 51 117 0.0 0.0 0.00 0.00 0.00 56 1015.1
20260504015319 51 117 0.0 0.0 0.00 0.00 0.00 56 1015.0
20260504014821 51 117 0.0 0.0 0.00 0.00 0.00 56 1015.0
20260504014320 51 117 0.0 0.0 0.00 0.00 0.00 55 1015.1
20260504013818 52 117 0.0 0.0 0.00 0.00 0.00 55 1015.0
20260504013318 52 117 0.0 0.0 0.00 0.00 0.00 55 1015.0
20260504012819 52 117 0.0 0.0 0.00 0.00 0.00 54 1014.9
20260504012317 53 117 0.0 0.0 0.00 0.00 0.00 53 1014.8
20260504012047 53 117 0.0 0.0 0.00 0.00 0.00 53 1014.8
20260504011317 53 117 0.0 0.0 0.00 0.00 0.00 53 1014.7
20260504010815 54 117 0.0 0.0 0.00 0.00 0.00 52 1014.7
20260504010315 54 117 0.0 0.0 0.00 0.00 0.00 50 1014.6
20260504005809 54 117 0.0 0.0 0.00 0.00 0.00 49 1014.6
20260504005309 55 117 0.0 0.0 0.00 0.00 0.00 48 1014.5
20260504005038 55 117 0.0 0.0 0.00 0.00 0.00 48 1014.5
20260504004308 56 117 0.0 0.0 0.00 0.00 0.00 48 1014.5
20260504003807 56 117 0.0 0.0 0.00 0.00 0.00 47 1014.4
20260504003524 56 117 0.0 0.0 0.00 0.00 0.00 46 1014.4
20260504002801 57 117 0.0 0.0 0.00 0.00 0.00 46 1014.4
20260504002303 57 117 0.0 0.0 0.00 0.00 0.00 46 1014.4
20260504001755 58 117 0.0 0.0 0.00 0.00 0.00 45 1014.4
20260504001248 58 117 0.0 0.0 0.00 0.00 0.00 42 1014.5
20260504000742 59 117 0.0 0.0 0.00 0.00 0.00 41 1014.4
20260504000547 59 117 0.0 0.0 0.00 0.00 0.00 40 1014.4
20260504000457 60 117 0.0 0.0 0.00 0.00 0.00 40 1014.4
20260503235425 61 117 0.0 0.0 0.00 0.00 0.00 39 1014.2
20260503235312 60 117 0.0 0.0 0.00 0.00 0.00 40 1014.3
20260503234213 61 117 0.0 0.0 0.00 0.00 0.00 39 1014.1
20260503233926 61 117 0.0 1.0 0.00 0.00 0.00 38 1014.2
20260503233200 62 117 0.0 2.0 0.00 0.00 0.00 38 1014.2
20260503232653 62 117 0.0 2.0 0.00 0.00 0.00 38 1014.2
20260503232147 62 322 0.0 0.0 0.00 0.00 0.00 39 1014.1
20260503231640 62 322 0.0 1.0 0.00 0.00 0.00 39 1014.0
20260503231352 63 322 0.0 1.0 0.00 0.00 0.00 35 1014.0
20260503230628 63 258 0.0 1.0 0.00 0.00 0.00 35 1014.0
20260503230122 63 258 0.0 2.0 0.00 0.00 0.00 34 1014.0
20260503225615 63 252 0.0 2.0 0.00 0.00 0.00 33 1013.9
20260503225111 63 254 1.0 3.0 0.00 0.00 0.00 31 1014.0
20260503224603 62 228 1.0 5.0 0.00 0.00 0.00 29 1014.0
20260503224058 62 335 1.0 5.0 0.00 0.00 0.00 29 1014.1
20260503223814 63 38 1.0 4.0 0.00 0.00 0.00 29 1014.0
20260503223051 63 0 1.0 4.0 0.00 0.00 0.00 28 1014.1
20260503222541 64 24 1.0 6.0 0.00 0.00 0.00 29 1014.0
20260503222034 64 229 2.0 6.0 0.00 0.00 0.00 28 1014.1
20260503221753 64 205 2.0 5.0 0.00 0.00 0.00 29 1014.1
20260503221022 63 55 1.0 7.0 0.00 0.00 0.00 28 1014.1
20260503220516 63 256 1.0 7.0 0.00 0.00 0.00 28 1014.2
20260503220235 63 267 1.0 4.0 0.00 0.00 0.00 28 1014.2
20260503215505 63 346 2.0 7.0 0.00 0.00 0.00 30 1014.1
20260503215215 63 69 2.0 7.0 0.00 0.00 0.00 30 1014.2
20260503214452 63 145 2.0 6.0 0.00 0.00 0.00 29 1014.2
20260503213947 63 92 1.0 4.0 0.00 0.00 0.00 28 1014.2
20260503213443 63 244 2.0 4.0 0.00 0.00 0.00 29 1014.1
20260503212944 63 63 2.0 4.0 0.00 0.00 0.00 27 1014.2
20260503212444 64 346 2.0 5.0 0.00 0.00 0.00 29 1014.3
20260503211943 64 279 2.0 8.0 0.00 0.00 0.00 29 1014.2
20260503211441 63 244 3.0 13.0 0.00 0.00 0.00 29 1014.3
20260503210941 63 294 3.0 13.0 0.00 0.00 0.00 28 1014.3
20260503210703 63 217 3.0 11.0 0.00 0.00 0.00 29 1014.3
20260503205941 64 295 2.0 7.0 0.00 0.00 0.00 28 1014.4
20260503205443 64 215 2.0 7.0 0.00 0.00 0.00 30 1014.3
20260503204942 64 230 2.0 7.0 0.00 0.00 0.00 29 1014.3
20260503204441 64 72 1.0 5.0 0.00 0.00 0.00 31 1014.4
20260503204206 64 113 2.0 6.0 0.00 0.00 0.00 30 1014.4
20260503203441 64 43 2.0 9.0 0.00 0.00 0.00 30 1014.5
20260503202943 64 22 3.0 9.0 0.00 0.00 0.00 29 1014.6
20260503202441 65 19 2.0 8.0 0.00 0.00 0.00 29 1014.6
20260503201940 64 190 2.0 8.0 0.00 0.00 0.00 31 1014.7
20260503201443 64 217 2.0 9.0 0.00 0.00 0.00 29 1014.7
20260503200938 64 186 2.0 9.0 0.00 0.00 0.00 29 1014.8
20260503200432 66 275 2.0 9.0 0.00 0.00 0.00 28 1014.8
20260503195925 65 257 2.0 8.0 0.00 0.00 0.00 30 1014.9
20260503195637 65 237 2.0 6.0 0.00 0.00 0.00 29 1014.9
20260503194914 63 55 2.0 8.0 0.00 0.00 0.00 31 1015.0
20260503194407 64 76 2.0 8.0 0.00 0.00 0.00 29 1015.3
20260503194124 63 150 2.0 9.0 0.00 0.00 0.00 30 1015.3
20260503193355 63 296 3.0 9.0 0.00 0.00 0.00 32 1015.4
20260503193119 63 213 3.0 9.0 0.00 0.00 0.00 29 1015.4
20260503192343 66 298 2.0 9.0 0.00 0.00 0.00 26 1015.5
20260503191838 66 325 2.0 4.0 0.00 0.00 0.00 29 1015.5
20260503191333 64 333 2.0 7.0 0.00 0.00 0.00 31 1015.6
20260503190827 64 338 3.0 11.0 0.00 0.00 0.00 32 1015.7
20260503190319 64 252 2.0 11.0 0.00 0.00 0.00 29 1015.7
20260503185815 65 338 2.0 9.0 0.00 0.00 0.00 29 1015.8
20260503185308 66 281 2.0 9.0 0.00 0.00 0.00 30 1015.8
20260503184800 64 240 2.0 9.0 0.00 0.00 0.00 31 1016.0
20260503184255 63 124 2.0 8.0 0.00 0.00 0.00 31 1016.0
20260503183751 63 251 3.0 9.0 0.00 0.00 0.00 29 1016.0
20260503183252 65 310 3.0 9.0 0.00 0.00 0.00 31 1016.2
20260503182754 65 230 2.0 9.0 0.00 0.00 0.00 32 1016.0
20260503182249 63 166 2.0 6.0 0.00 0.00 0.00 33 1015.9
20260503181749 64 214 2.0 6.0 0.00 0.00 0.00 30 1016.1
20260503181250 64 306 3.0 6.0 0.00 0.00 0.00 30 1016.2
20260503180748 63 53 2.0 6.0 0.00 0.00 0.00 30 1016.3
20260503180250 61 91 3.0 9.0 0.00 0.00 0.00 31 1016.3
20260503175748 60 25 3.0 9.0 0.00 0.00 0.00 34 1016.3
20260503175250 60 294 2.0 7.0 0.00 0.00 0.00 32 1016.4
20260503175238 58 273 3.0 9.0 0.00 0.00 0.00 34 1016.5
20260503174249 60 115 3.0 9.0 0.00 0.00 0.00 32 1016.4
20260503174009 61 292 4.0 13.0 0.00 0.00 0.00 33 1016.6
20260503173250 60 285 3.0 13.0 0.00 0.00 0.00 34 1016.4
20260503172746 60 273 2.0 7.0 0.00 0.00 0.00 33 1016.5
20260503172245 60 247 2.0 11.0 0.00 0.00 0.00 33 1016.6
20260503171745 60 355 2.0 11.0 0.00 0.00 0.00 32 1016.6
20260503171513 60 231 3.0 10.0 0.00 0.00 0.00 33 1016.7
20260503170745 60 173 3.0 10.0 0.00 0.00 0.00 33 1016.6
20260503170245 60 20 3.0 8.0 0.00 0.00 0.00 34 1016.7
20260503150737 53 238 4.0 12.0 0.00 0.00 0.00 40 1017.5
20260503150237 53 88 3.0 12.0 0.00 0.00 0.00 42 1017.5
20260503140232 49 320 2.0 10.0 0.00 0.00 0.00 50 1017.7
20260503131215 46 256 1.0 4.0 0.00 0.00 0.00 59 1017.7
20260503130708 46 150 2.0 11.0 0.00 0.00 0.00 59 1017.8
20260503130424 46 227 2.0 11.0 0.00 0.00 0.00 60 1017.8
20260503110446 40 34 0.0 1.0 0.00 0.00 0.00 75 1016.5
20260503090313 42 32 0.0 3.0 0.00 0.00 0.00 69 1015.1
20260503081257 43 42 0.0 1.0 0.00 0.00 0.00 67 1014.7
20260503080752 43 42 0.0 0.0 0.00 0.00 0.00 67 1014.7
20260503080251 43 42 0.0 0.0 0.00 0.00 0.00 66 1014.7
20260503072742 44 65 0.0 2.0 0.00 0.00 0.00 63 1014.7
20260503072243 45 58 0.0 1.0 0.00 0.00 0.00 63 1014.6
20260503071745 45 53 0.0 2.0 0.00 0.00 0.00 63 1014.5
20260503071243 45 0 0.0 2.0 0.00 0.00 0.00 63 1014.5
20260503070744 45 285 1.0 2.0 0.00 0.00 0.00 63 1014.4
20260503070238 45 285 1.0 4.0 0.00 0.00 0.00 62 1014.3
20260503060237 47 355 1.0 4.0 0.00 0.00 0.00 60 1014.1
20260503054738 47 66 1.0 5.0 0.00 0.00 0.00 59 1014.2
20260503054239 48 24 1.0 2.0 0.00 0.00 0.00 58 1014.1
20260503053737 48 314 1.0 3.0 0.00 0.00 0.00 58 1014.1
20260503053231 48 107 1.0 3.0 0.00 0.00 0.00 57 1014.2
20260503052724 48 51 1.0 4.0 0.00 0.00 0.00 57 1014.1
20260503052218 49 0 1.0 4.0 0.00 0.00 0.00 56 1014.1
20260503051712 49 49 1.0 3.0 0.00 0.00 0.00 56 1014.2
20260503051206 49 355 1.0 4.0 0.00 0.00 0.00 55 1014.2
20260503050708 49 57 1.0 4.0 0.00 0.00 0.00 55 1014.1
20260503050207 49 36 2.0 5.0 0.00 0.00 0.00 55 1014.1
20260503045926 49 92 2.0 5.0 0.00 0.00 0.00 55 1014.1
20260503045205 49 16 1.0 5.0 0.00 0.00 0.00 55 1014.1
20260503045153 50 26 2.0 5.0 0.00 0.00 0.00 54 1014.1
20260503044204 50 51 2.0 4.0 0.00 0.00 0.00 54 1014.2
20260503043704 50 101 1.0 4.0 0.00 0.00 0.00 54 1014.2
20260503043203 50 86 2.0 4.0 0.00 0.00 0.00 54 1014.2
20260503042701 50 307 2.0 5.0 0.00 0.00 0.00 54 1014.2
20260503042201 50 31 2.0 5.0 0.00 0.00 0.00 54 1014.1
20260503041702 50 77 1.0 5.0 0.00 0.00 0.00 54 1014.1
20260503041158 51 100 1.0 4.0 0.00 0.00 0.00 53 1014.1
20260503040657 51 138 1.0 5.0 0.00 0.00 0.00 53 1014.1
20260503040200 51 71 2.0 5.0 0.00 0.00 0.00 53 1014.0
20260503035658 51 65 1.0 4.0 0.00 0.00 0.00 53 1014.0
20260503035158 51 52 2.0 5.0 0.00 0.00 0.00 53 1014.0
20260503034656 51 302 2.0 5.0 0.00 0.00 0.00 52 1013.9